[[{"header":{"parameterUnit":"m.s-1","parameterCategory":1,"la1":30.2991,"la2":30.254,"lo1":-89.0895,"lo2":-89.0444,"dy":0.0017,"dx":0.0017,"nx":28,"ny":28,"refTime":"2023-09-09T21:00:00:Z","depth":0,"parameterNumber":2,"parameterNumberName":"U-component_of_WINDS"},"data":[0,0,0,0,0,0,0,0,0,0,0,0,0,0,0,0,0,0,0,0,0,0,0,0,0,0,0,0,0,0,0,0,0,0,0,0,0,0,0,0,0,0,0,0,0,0,0,0,0,0,0,0,0,0,0,0,0,0,0.2927,0.293,0,0.3149,0.3151,0.3154,0.3204,0.3202,0.3201,0.3199,0.3434,0.3441,0.3449,0,0,0,0,0,0,0,0,0,0,0,0,0,0.2556,0.2563,0.2927,0.293,0.2933,0.3148,0.3151,0.3154,0.3204,0.3202,0.32,0.3198,0.3431,0.344,0.345,0,0,0,0,0,0,0,0,0,0,0,0,0,0.2742,0.2565,0.2927,0.2983,0.2991,0.3148,0.3151,0.3155,0.3204,0.3202,0.32,0.3198,0.3428,0.344,0.3451,0.357,0,0,0.3486,0.3491,0,0,0,0,0,0,0,0,0.2731,0.2755,0.2972,0.298,0.2988,0.3146,0.3107,0.3295,0.3205,0.3124,0.3199,0.3196,0.3341,0.3359,0.3406,0.3581,0.3591,0.3487,0.3494,0.3499,0.3503,0,0,0,0,0,0,0,0.2718,0.2746,0.3015,0.2975,0.2985,0.3001,0.3024,0.3143,0.3243,0.313,0.3135,0.316,0.3345,0.3395,0.3412,0.3594,0.3487,0.3497,0.3505,0.3509,0.3882,0.3884,0,0,0,0,0,0,0.2694,0.2735,0.3008,0.3022,0.2851,0.3009,0.3036,0.3098,0.3242,0.3261,0.3161,0.3161,0.3376,0.3399,0.3421,0.3572,0.3499,0.351,0.3517,0.3879,0.3882,0.3885,0,0,0,0,0,0,0.2686,0.2718,0.2999,0.288,0.2916,0.3018,0.3088,0.3104,0.3154,0.3265,0.3284,0.3194,0.3375,0.3404,0.3533,0.358,0.3515,0.3526,0.3875,0.388,0.3884,0.3873,0,0,0,0,0,0,0.2675,0.2715,0.2759,0.288,0.2923,0.3105,0.309,0.311,0.3173,0.3174,0.3301,0.3319,0.3376,0.3515,0.3544,0.3595,0.3535,0.3871,0.3877,0.3882,0.3869,0.3876,0.3882,0,0,0,0,0,0.2662,0.2748,0.2761,0.2794,0.2979,0.3107,0.3132,0.3193,0.3176,0.3223,0.3295,0.3315,0.357,0.3528,0.3561,0.3616,0.3869,0.3876,0.3882,0.3866,0.3875,0.3882,0,0,0,0,0,0,0.2632,0.2765,0.2781,0.2908,0.2996,0.3115,0.3176,0.3199,0.3296,0.3293,0.3367,0.3396,0.352,0.3581,0.3531,0.374,0.3719,0.3733,0.3696,0.3705,0.3711,0.3695,0.3545,0,0,0,0,0,0.264,0.273,0.2842,0.2944,0.2987,0.3074,0.3132,0.3171,0.3266,0.3304,0.3385,0.3479,0.3581,0.3646,0.3745,0.3878,0.3908,0.3932,0.3939,0.3943,0.3955,0.4033,0.4046,0.3907,0.3907,0.3907,0,0,0.2658,0.2742,0.2795,0.294,0.3013,0.3108,0.3105,0.3205,0.3277,0.332,0.3446,0.3509,0.3619,0.375,0.3812,0.3805,0.4,0.3952,0.3955,0.3964,0.4041,0.4054,0.4066,0.3912,0.3911,0.391,0,0,0.274,0.2811,0.2904,0.2977,0.3086,0.3143,0.3166,0.3282,0.3325,0.3452,0.3487,0.3576,0.3748,0.3825,0.3887,0.3999,0.4023,0.403,0.4064,0.4139,0.415,0.416,0.4203,0.4217,0.4041,0.4041,0.4041,0,0.2749,0.289,0.295,0.3049,0.3113,0.3154,0.3252,0.332,0.3457,0.3502,0.3491,0.371,0.3786,0.3938,0.3965,0.4013,0.4044,0.4017,0.4143,0.4154,0.4164,0.4206,0.4221,0.4041,0.4041,0.4041,0.4041,0,0.2898,0.2996,0.3059,0.3188,0.3259,0.3357,0.3434,0.35,0.3533,0.3593,0.3723,0.3817,0.3937,0.3975,0.4009,0.4133,0.4125,0.4127,0.4108,0.4176,0.4217,0.4233,0.4041,0.4041,0.4041,0.4041,0,0,0.2968,0.3129,0.3151,0.3211,0.3335,0.3413,0.3514,0.3629,0.3685,0.3778,0.3867,0.4012,0.4016,0.4086,0.4129,0.4195,0.4281,0.419,0.4194,0.4206,0.4426,0.4425,0.4442,0.4296,0.43,0.4302,0.4418,0,0.3067,0.3244,0.3302,0.3452,0.3545,0.3586,0.3674,0.3761,0.382,0.3909,0.3975,0.4078,0.4073,0.4116,0.4182,0.4256,0.4327,0.4248,0.4383,0.4387,0.4356,0.4463,0.4462,0.4566,0.4434,0.4436,0.4438,0,0.3205,0.3299,0.3457,0.3571,0.3612,0.3689,0.3801,0.3885,0.3986,0.4024,0.4103,0.4141,0.4252,0.4224,0.4379,0.4325,0.4384,0.4428,0.4434,0.4451,0.4418,0.4485,0.4601,0.4617,0.4463,0.4461,0.446,0,0.3243,0.3409,0.3525,0.3575,0.371,0.3764,0.3824,0.3922,0.3988,0.4086,0.4131,0.4241,0.4302,0.4388,0.4457,0.443,0.4607,0.4585,0.4645,0.4644,0.4682,0.4679,0.4811,0.4716,0.4716,0.4715,0.4715,0,0.3348,0.3444,0.3544,0.3616,0.3726,0.3792,0.39,0.3962,0.405,0.4137,0.418,0.4262,0.4346,0.444,0.4495,0.4617,0.4644,0.468,0.4694,0.4678,0.4673,0.4719,0.4714,0.472,0.4719,0.4718,0.4717,0,0.341,0.348,0.361,0.3727,0.3759,0.3835,0.3936,0.401,0.407,0.418,0.421,0.4305,0.4418,0.4494,0.464,0.4677,0.481,0.4821,0.4775,0.4782,0.4839,0.4833,0.5006,0.5034,0.4918,0.4918,0.4919,0,0.3473,0.3547,0.3672,0.3732,0.3791,0.3887,0.3954,0.4024,0.4093,0.4214,0.4274,0.4388,0.4484,0.4663,0.4748,0.486,0.4876,0.4929,0.4894,0.4875,0.488,0.4876,0.4885,0.4935,0.4936,0.4937,0.4937,0,0.3579,0.361,0.3704,0.381,0.3889,0.3977,0.4065,0.4113,0.4198,0.4274,0.4389,0.4463,0.461,0.4725,0.4845,0.491,0.494,0.4947,0.4968,0.4953,0.4924,0.4943,0.4792,0.4944,0.4943,0.4943,0.4942,0.4942,0.3645,0.3714,0.3812,0.3916,0.3989,0.4071,0.4146,0.4215,0.4311,0.4434,0.447,0.459,0.4693,0.4856,0.4923,0.5021,0.5016,0.5045,0.5053,0.5059,0.5061,0.4906,0.5043,0.5042,0.5042,0.5042,0.5042,0,0.3755,0.382,0.3915,0.4036,0.4119,0.4135,0.4235,0.4304,0.4408,0.4499,0.4592,0.4725,0.4837,0.493,0.5047,0.5107,0.5124,0.5136,0.5134,0.5149,0.5057,0.5028,0.5121,0.5121,0.5121,0.5121,0.5121,0.5121,0.3822,0.394,0.3983,0.414,0.4205,0.4321,0.4376,0.4454,0.4527,0.4673,0.4765,0.4824,0.4918,0.5041,0.5146,0.5171,0.5213,0.5223,0.5251,0.5164,0.5155,0.5146,0.512,0.5231,0.5231,0.5336,0.5336,0.5337]},{"header":{"parameterUnit":"m.s-1","parameterCategory":1,"la1":30.2991,"la2":30.254,"lo1":-89.0895,"lo2":-89.0444,"dy":0.0017,"dx":0.0017,"nx":28,"ny":28,"refTime":"2023-09-09T21:00:00:Z","depth":0,"parameterNumber":3,"parameterNumberName":"V-component_of_WINDS"},"data":[0,0,0,0,0,0,0,0,0,0,0,0,0,0,0,0,0,0,0,0,0,0,0,0,0,0,0,0,0,0,0,0,0,0,0,0,0,0,0,0,0,0,0,0,0,0,0,0,0,0,0,0,0,0,0,0,0,0,-1.8306,-1.8307,0,-1.8401,-1.8402,-1.8403,-1.8486,-1.8487,-1.8488,-1.8488,-1.8579,-1.8581,-1.8582,0,0,0,0,0,0,0,0,0,0,0,0,0,-1.8191,-1.8192,-1.8306,-1.8307,-1.8308,-1.8401,-1.8402,-1.8403,-1.8485,-1.8487,-1.8488,-1.8489,-1.8579,-1.858,-1.8582,0,0,0,0,0,0,0,0,0,0,0,0,0,-1.8258,-1.8193,-1.8306,-1.8361,-1.8366,-1.84,-1.8402,-1.8404,-1.8485,-1.8487,-1.8488,-1.8489,-1.8578,-1.858,-1.8582,-1.8568,0,0,-1.8589,-1.859,0,0,0,0,0,0,0,0,-1.8254,-1.8262,-1.8351,-1.8357,-1.8363,-1.8433,-1.8395,-1.8458,-1.8485,-1.844,-1.8488,-1.849,-1.8529,-1.8535,-1.855,-1.8572,-1.8576,-1.859,-1.8591,-1.8592,-1.8593,0,0,0,0,0,0,0,-1.825,-1.8259,-1.8343,-1.8352,-1.836,-1.8379,-1.839,-1.8407,-1.8475,-1.8444,-1.845,-1.8461,-1.8532,-1.8547,-1.8552,-1.8577,-1.859,-1.8592,-1.8593,-1.8594,-1.8593,-1.8592,0,0,0,0,0,0,-1.8237,-1.8254,-1.834,-1.8346,-1.8312,-1.838,-1.8392,-1.8409,-1.8475,-1.8487,-1.8459,-1.8464,-1.8543,-1.855,-1.8556,-1.8543,-1.8592,-1.8594,-1.8595,-1.8594,-1.8593,-1.8591,0,0,0,0,0,0,-1.8234,-1.8244,-1.8336,-1.8302,-1.8315,-1.838,-1.8398,-1.841,-1.8425,-1.8487,-1.8499,-1.8462,-1.8544,-1.8553,-1.8565,-1.8547,-1.8595,-1.8597,-1.8596,-1.8594,-1.8592,-1.8517,0,0,0,0,0,0,-1.8231,-1.8243,-1.8239,-1.8301,-1.8317,-1.8345,-1.8397,-1.8411,-1.843,-1.8437,-1.8493,-1.8503,-1.8546,-1.8561,-1.8567,-1.8551,-1.8599,-1.8598,-1.8595,-1.8592,-1.8521,-1.8512,-1.8505,0,0,0,0,0,-1.8226,-1.8212,-1.8238,-1.8248,-1.8314,-1.8344,-1.8352,-1.8403,-1.8428,-1.8424,-1.8464,-1.8502,-1.8549,-1.8562,-1.8569,-1.8554,-1.8599,-1.8596,-1.8593,-1.8525,-1.8514,-1.8505,0,0,0,0,0,0,-1.8142,-1.8221,-1.8251,-1.8257,-1.8293,-1.8358,-1.8354,-1.839,-1.8419,-1.8424,-1.8485,-1.8497,-1.8502,-1.8529,-1.8542,-1.8543,-1.8579,-1.8577,-1.8525,-1.8515,-1.8507,-1.8499,-1.8601,0,0,0,0,0,-1.8125,-1.8145,-1.8212,-1.8211,-1.8228,-1.8288,-1.8303,-1.8339,-1.8379,-1.8394,-1.8434,-1.8469,-1.8492,-1.8506,-1.853,-1.8527,-1.8539,-1.852,-1.8512,-1.8505,-1.8502,-1.8502,-1.8494,-1.8581,-1.8581,-1.8581,0,0,-1.8088,-1.8134,-1.8142,-1.8195,-1.8228,-1.8245,-1.83,-1.8316,-1.8329,-1.8395,-1.841,-1.8441,-1.8484,-1.8488,-1.8492,-1.8511,-1.8481,-1.8501,-1.8495,-1.8496,-1.8498,-1.8489,-1.8482,-1.8579,-1.8579,-1.8579,0,0,-1.803,-1.8068,-1.8071,-1.8103,-1.8153,-1.8193,-1.8194,-1.8254,-1.8278,-1.8294,-1.8344,-1.836,-1.8398,-1.8427,-1.8447,-1.8402,-1.8438,-1.8409,-1.8365,-1.8365,-1.8358,-1.8352,-1.8335,-1.8328,-1.8406,-1.8406,-1.8406,0,-1.7978,-1.8008,-1.8067,-1.8081,-1.8102,-1.8167,-1.817,-1.8198,-1.8251,-1.8264,-1.8286,-1.8336,-1.837,-1.8382,-1.8371,-1.8385,-1.8387,-1.8401,-1.8355,-1.8349,-1.8345,-1.8329,-1.8323,-1.8402,-1.8402,-1.8403,-1.8403,0,-1.794,-1.7961,-1.7957,-1.8011,-1.8032,-1.804,-1.8099,-1.8113,-1.8149,-1.8186,-1.8201,-1.8245,-1.8279,-1.8285,-1.8319,-1.8302,-1.8313,-1.8344,-1.838,-1.8331,-1.8318,-1.8312,-1.8396,-1.8398,-1.8399,-1.84,0,0,-1.7829,-1.7918,-1.7915,-1.794,-1.8001,-1.8017,-1.8028,-1.8065,-1.8075,-1.8111,-1.812,-1.8153,-1.8183,-1.8205,-1.8243,-1.8243,-1.8204,-1.8274,-1.8276,-1.8258,-1.8187,-1.8161,-1.8154,-1.8229,-1.8229,-1.8228,-1.8183,0,-1.7779,-1.7805,-1.7859,-1.7866,-1.7885,-1.7949,-1.7958,-1.7996,-1.8032,-1.8052,-1.8091,-1.8113,-1.8151,-1.8165,-1.8168,-1.8208,-1.819,-1.8212,-1.8236,-1.8237,-1.8222,-1.8147,-1.812,-1.8075,-1.8178,-1.8177,-1.8176,0,-1.7724,-1.7759,-1.7768,-1.783,-1.784,-1.7847,-1.7886,-1.7905,-1.7949,-1.7975,-1.8001,-1.8044,-1.8058,-1.8094,-1.8113,-1.8127,-1.8141,-1.8162,-1.8162,-1.8164,-1.8202,-1.8145,-1.8062,-1.8054,-1.8169,-1.8169,-1.817,0,-1.764,-1.7689,-1.7701,-1.7721,-1.7793,-1.7797,-1.7827,-1.7873,-1.7892,-1.7925,-1.7938,-1.7971,-1.7989,-1.8013,-1.8063,-1.8085,-1.8076,-1.8117,-1.8097,-1.8095,-1.809,-1.8089,-1.8005,-1.8102,-1.8102,-1.8102,-1.8102,0,-1.7577,-1.758,-1.7665,-1.7672,-1.7677,-1.774,-1.7743,-1.7779,-1.7819,-1.7834,-1.789,-1.7902,-1.7969,-1.7989,-1.8028,-1.8038,-1.8045,-1.8066,-1.8075,-1.8059,-1.8056,-1.8067,-1.807,-1.81,-1.8101,-1.8101,-1.8101,0,-1.7482,-1.7539,-1.7557,-1.7625,-1.7643,-1.7643,-1.7701,-1.7709,-1.7751,-1.7768,-1.7775,-1.7839,-1.7864,-1.7919,-1.7958,-1.7985,-1.7984,-1.8003,-1.7969,-1.7975,-1.7952,-1.7952,-1.787,-1.7862,-1.7965,-1.7964,-1.7963,0,-1.7437,-1.7442,-1.7511,-1.7526,-1.7555,-1.7578,-1.7598,-1.7661,-1.7679,-1.7731,-1.7733,-1.7764,-1.7792,-1.783,-1.7878,-1.7909,-1.7929,-1.7898,-1.7933,-1.7917,-1.7926,-1.7924,-1.7924,-1.7889,-1.7887,-1.7886,-1.7885,0,-1.7351,-1.738,-1.7408,-1.7447,-1.747,-1.7503,-1.7538,-1.7547,-1.7618,-1.7635,-1.7664,-1.7686,-1.7729,-1.7758,-1.7797,-1.7826,-1.7866,-1.7875,-1.7871,-1.7853,-1.7832,-1.7842,-1.7945,-1.7875,-1.7876,-1.7877,-1.7877,-1.7878,-1.7278,-1.7285,-1.7336,-1.7366,-1.74,-1.7433,-1.7445,-1.7489,-1.7514,-1.7555,-1.7591,-1.7616,-1.7661,-1.7717,-1.7744,-1.7764,-1.7784,-1.7779,-1.7778,-1.7775,-1.7768,-1.7832,-1.7771,-1.7772,-1.7772,-1.7772,-1.7773,0,-1.7193,-1.723,-1.7257,-1.7307,-1.733,-1.7371,-1.7413,-1.7429,-1.7451,-1.7491,-1.7518,-1.7551,-1.7581,-1.7633,-1.7666,-1.7672,-1.7691,-1.7678,-1.7677,-1.7683,-1.7749,-1.7747,-1.7662,-1.7662,-1.7662,-1.7662,-1.7662,-1.7662,-1.7152,-1.7166,-1.7201,-1.7232,-1.7269,-1.7296,-1.7316,-1.7346,-1.7378,-1.7413,-1.7439,-1.7474,-1.7518,-1.7556,-1.7585,-1.7599,-1.7608,-1.7588,-1.7608,-1.7668,-1.7678,-1.7688,-1.7687,-1.759,-1.759,-1.7541,-1.7541,-1.754]}]]